Погода в Рубцовске

Погода в Рубцовске : погода сейчас, прогноз погоды и архив. Всё, что Вы хотите узнать о погоде в Рубцовске!

Хотите узнать прогноз погоды в Рубцовске? Тогда Вам сюда: Погода в Рубцовске

Поиск расширенной информации на нашем сайте:

Другие новости

Новости СМИ2

Главная страница сайта

Новости сайта

03.07.2017

Напоминаем, что на нашем специализированном сайте Метеоцентр.Азия вы можете получить высокодетализированные автоматические прогнозы погоды по пунктам России, СНГ и мира в авиационном формате (включающие направление и скорость ветра, видимость, явления погоды, количество и форму облачности, нижнюю и верхнюю границу облачности).


Погода в Рубцовске - сегодня

Время (UTC), дата Ветер
(°,м/с) 
Видим.   Явления Облачность Т
(°С)
Тd
(°С)
f(%) Тe
(°С)
Pmin
(гПа)
dP
(гПа)
Po
(мм)
O2
(г/м3)
Тmin Tmax R s Состояние
почвы
09 20.10.17 190 (Ю) 9-12{15}  20000 м  {ливн. осадки}  10/10 800 м 
[Sc]
+9.1 +5.2 77 +7  1015.9  -0.7  742  289           
12 20.10.17 190 (Ю) 7-10{12}  20000 м  {ливн. осадки}  10/10 700 м 
[Sc]
+9.8 +5.5 75 +8  1016.2  0.3  742  288    +10.1  0.4     
15 20.10.17 200 (Ю) 10-14{16}  20000 м  слаб. ливневой дождь  10/10 600 м кучево-дожд. 
[Cb cap]
+9.3 +6.8 84 +7  1016.6  0.4  743  288           
18 20.10.17 200 (Ю) 8-11{16}  20000 м  {ливн. осадки}  10/10 800 м 
[Sc]
+8.8 +6.4 85 +6  1016.8  0.1  743  289           
21 20.10.17 180 (Ю) 6{13}  20000 м    10/10 800 м 
[Sc]
+8.2 +6.5 89 +6  1016.3  -0.5  742  289           
00 21.10.17 190 (Ю) 7-11{13}  20000 м  слаб. ливневой дождь  10/10 600 м кучево-дожд. 
[Cb cap]
+7.8 +6.1 89 +6  1015.5  -0.8  742  290  +7.8       
03 21.10.17 190 (Ю) 9-13{13}  20000 м  {ливн. осадки}  10/10 600 м кучево-дожд. 
[Cb cap]
+8.7 +4.4 74 +6  1015.8  0.3  742  289  +7.6         
06 21.10.17 200 (Ю) 9-14{15}  20000 м  {ливн. осадки}  10/10 800 м 
[Sc]
+9.4 +3.9 68 +7  1015.2  -0.5  742  288           
09 21.10.17 200 (Ю) 8-13{14}  20000 м    10/6 1000 м средняя, верхняя 
[Sc|Ac trans|Ci fib]
+11.4 +4.3 62 +10  1013.2  -1.8  740  286           
12 21.10.17 180 (Ю) 4{13}  20000 м    8/6 1000 м верхняя 
[Sc|Ci fib]
+10.4 +4.6 67 +10  1012.7  -0.5  740  286    +12  0.4     
15 21.10.17 210 (ЮЗ) 20000 м    10/10 600 м 
[Sc]
+8.2 +5.4 82 +8  1013.1  0.2  740  289           
18 21.10.17 140 (ЮВ) 20000 м    10/10 600 м 
[Sc]
+8.7 +5.9 83 +9  1011.8  -1.2  739  288           
21 21.10.17 220 (ЮЗ) 20000 м  слаб. дождь  10/10 600 м 
[Sc]
+8.4 +6.1 85 +8  1011.3  -0.6  739  288           
00 22.10.17 200 (Ю) 20000 м  слаб. дождь  10/10 600 м 
[Sc]
+7.2 +5.9 91 +8  1011.5  0.1  739  289  +7.1    0.5     
03 22.10.17 210 (ЮЗ) 10 км  слаб. дождь  10/10 600 м 
[Sc]
+7.6 +6.4 92 +8  1012.7  1.2  740  289           
06 22.10.17 220 (ЮЗ) 10 км  слаб. дождь  10/10 300 м 
[Frnb|Ns]
+7.8 +6.9 94 +7  1013.6  0.9  740  289           
09 22.10.17 240 (ЮЗ) 20000 м  {дождь}  10/3 1000 м средняя 
[Sc|As op]
+7.8 +6.2 90 +7  1014.4  0.7  741  289           
12 22.10.17 290 (З) 7-10{11}  10 км  слаб. ливневой дождь  10/10 300 м кучево-дожд. 
[Cb cap]
+4.4 +2.5 87 +1  1017.8  3.1  743  294    +8.2     
15 22.10.17 220 (ЮЗ) 4{10}  20000 м  {ливн. осадки}  ясно 
+2.6 -0.3 81 +1  1021.3  3.2  746  298           
18 22.10.17 290 (З) 20000 м  {ливн. осадки}  ясно 
-1.6 -3.7 86 -4  1024.9  748  304           
21 22.10.17 260 (З) 20000 м    ясно 
-3.2 -4.6 90 -3  1026.4  1.4  749  306           
00 23.10.17 260 (З) 20000 м    ясно 
-5.6 -6.8 91 -5  1027.7  0.9  750  309  -5.6    0.3     
03 23.10.17 040 (СВ) 20000 м    10/0 верхняя 
[Ci sp]
-2.7 -3.8 92 -2  1027.7  0.4  750  306           
06 23.10.17 040 (СВ) 20000 м    10/0 средняя, верхняя 
[Ac und|Ci sp]
+1.9 -2.8 71 1026.3  -1  749  300           
09 23.10.17 040 (СВ) 20000 м    10/10 900 м 
[Sc]
+4.1 -1.5 67 +3  1024  -2  748  297           
Время (UTC), дата Ветер
(°,м/с) 
Видим.   Явления Облачность Т
(°С)
Тd
(°С)
f(%) Тe
(°С)
Pmin
(гПа)
dP
(гПа)
Po
(мм)
O2
(г/м3)
Тmin Tmax R s Состояние
почвы

Для получения пояснительной информации подведите курсор к названию столбца.

ПОГОДА в Рубцовске - архив

Всё, что Вы хотите узнать о погоде в Рубцовске - удобно и подробно!

Выберите нужную дату (начиная с 1 января 2015* года) и нажмите кнопку "Найти".
Будут отображены архивные сводки погоды по пункту Рубцовск, начиная с указанной даты.


Отображать данные в формате CSV (для использования в таблицах Excel)


Внимание! Наш архив погоды предназначен исключительно для личного некоммерческого использования в познавательных целях. Если Вам необходимы официальные справки о состоянии погоды (для производственных, юридических, коммерческих и т.п. целей), обращайтесь в органы Росгидромета.

*Примечание: данная дата относится к архиву по метеостанциям СССР (Россия, СНГ, Балтия).
Архив по метеостанциям Зарубежной Европы и Азии (кроме Китая) хранится 10 дней, по другим регионам земного шара (Китай, Африка, Америка, Австралия, Океания) - 1 день.

Рубцовск - район местоположения метеостанции


Название, широта, долгота, высота метеостанции:
Рубцовск 51.5°ш. 81.2°д. 219 м над ур. моря [Российская Федерация]

Дополнительная информация

В oтличие oт бoльшинства пoгoдных сайтoв мы публикуем пoдрoбную метеoинфoрмацию в детальнoм прoфессиoнальнoм фoрмате.

Характеристики температуры и влажнoсти вoздуха измеряются на высoте 2 м в тени вдали oт зданий и деревьев.
Скoрoсть ветра измеряется на высoте 10 м (на урoвне рoста челoвека скoрoсть ветра ниже в 1.5-2 раза). Если метеoстанция нахoдится в гoрoде или в лесу, тo скoрoсть ветра занижена на 2-4 м/с пo сравнению с oткрытым местoм. Скoрoсть ветра над акватoриями крупных рек и oзёр, а также на вершинах хoлмoв на 2-5 м/с выше, чем в oбычных услoвиях.
Атмoсфернoе давление в разных тoчках местнoсти мoжет значительнo oтличаться oт давления на метеoстанции, в зависимoсти oт услoвий рельефа (при пoдъёме на 10 м давление пoнижается примернo на 1 мм рт.ст.).